Station Historical Data
Daily Summary for June 15, 2017 Units:  English    Metric   Both
« Previous Day
Next Day »
Daily Weekly Monthly Yearly Custom
  High: Low: Average:
Temperature: TemperatureF °F 59.3 °F 69.1 °F
Dew Point: DewpointF °F 46.3 °F 49.7 °F
Humidity: Humidity % 33 % 51 %
Wind Speed: WindSpeedMPH mph 0.0 mph 1.7 mph
Wind Gust: WindSpeedGustMPH mph - -
Wind:- - SSW
Pressure: PressureIn in 29.95 in -
Precipitation: 0.00 in    
Historical Graphs
 
 
Tabular Data for June 15, 2017
Time Temperature Dew Point Pressure Wind Wind Speed Wind Gust Humidity Rainfall Rate (Hourly) solar
TemperatureF °F DewpointF °F PressureIn in Calm     Humidity % HourlyPrecipIn in SolarRadiationWatts/m^2 W/m2
00:00 63.2 °F 49.1 °F 29.98 in Calm   8.0 mph 60 % 0.00 in 0.00 W/m2
00:05 63.2 °F 48.7 °F 29.98 in Calm   13.0 mph 59 % 0.00 in 0.00 W/m2
00:10 63.2 °F 48.7 °F 29.98 in Calm   8.0 mph 59 % 0.00 in 0.00 W/m2
00:15 63.1 °F 48.6 °F 29.97 in East 9.0 mph 9.0 mph 59 % 0.00 in 0.00 W/m2
00:20 63.0 °F 48.9 °F 29.98 in Calm   8.0 mph 60 % 0.00 in 0.00 W/m2
00:25 63.0 °F 48.5 °F 29.97 in ESE 7.0 mph 11.0 mph 59 % 0.00 in 0.00 W/m2
00:30 63.0 °F 48.5 °F 29.98 in Calm   12.0 mph 59 % 0.00 in 0.00 W/m2
00:35 62.9 °F 48.4 °F 29.98 in ESE 5.0 mph 11.0 mph 59 % 0.00 in 0.00 W/m2
00:40 62.9 °F 48.4 °F 29.97 in ESE 8.0 mph 9.0 mph 59 % 0.00 in 0.00 W/m2
00:45 62.9 °F 48.4 °F 29.97 in ESE 6.0 mph 13.0 mph 59 % 0.00 in 0.00 W/m2
00:50 62.9 °F 48.4 °F 29.97 in East 5.0 mph 13.0 mph 59 % 0.00 in 0.00 W/m2
00:55 62.8 °F 48.3 °F 29.97 in East 9.0 mph 13.0 mph 59 % 0.00 in 0.00 W/m2
01:00 62.8 °F 48.3 °F 29.97 in East 8.0 mph 11.0 mph 59 % 0.00 in 0.00 W/m2
01:06 62.7 °F 48.2 °F 29.97 in ESE 2.0 mph 11.0 mph 59 % 0.00 in 0.00 W/m2
01:11 62.7 °F 48.6 °F 29.97 in East 7.0 mph 12.0 mph 60 % 0.00 in 0.00 W/m2
01:16 62.6 °F 48.1 °F 29.97 in East 5.0 mph 6.0 mph 59 % 0.00 in 0.00 W/m2
01:21 62.6 °F 48.1 °F 29.97 in East 5.0 mph 13.0 mph 59 % 0.00 in 0.00 W/m2
01:26 62.5 °F 48.4 °F 29.97 in Calm   13.0 mph 60 % 0.00 in 0.00 W/m2
01:31 62.5 °F 48.4 °F 29.97 in East 4.0 mph 4.0 mph 60 % 0.00 in 0.00 W/m2
01:36 62.4 °F 48.3 °F 29.97 in East 5.0 mph 5.0 mph 60 % 0.00 in 0.00 W/m2
01:41 62.3 °F 48.2 °F 29.97 in East 2.0 mph 5.0 mph 60 % 0.00 in 0.00 W/m2
01:46 62.3 °F 48.2 °F 29.97 in East 4.0 mph 4.0 mph 60 % 0.00 in 0.00 W/m2
01:51 62.2 °F 48.2 °F 29.97 in East 4.0 mph 6.0 mph 60 % 0.00 in 0.00 W/m2
01:56 62.1 °F 48.1 °F 29.96 in East 6.0 mph 6.0 mph 60 % 0.00 in 0.00 W/m2
02:01 62.1 °F 48.1 °F 29.96 in Calm     60 % 0.00 in 0.00 W/m2
02:06 62.0 °F 48.0 °F 29.96 in Calm   1.0 mph 60 % 0.00 in 0.00 W/m2
02:11 61.9 °F 47.9 °F 29.96 in East 4.0 mph 5.0 mph 60 % 0.00 in 0.00 W/m2
02:16 61.8 °F 47.8 °F 29.96 in East 7.0 mph 7.0 mph 60 % 0.00 in 0.00 W/m2
02:21 61.8 °F 47.8 °F 29.96 in ESE 6.0 mph 6.0 mph 60 % 0.00 in 0.00 W/m2
02:26 61.7 °F 47.7 °F 29.96 in East 6.0 mph 8.0 mph 60 % 0.00 in 0.00 W/m2
02:31 61.6 °F 47.6 °F 29.96 in East 5.0 mph 6.0 mph 60 % 0.00 in 0.00 W/m2
02:36 61.6 °F 47.6 °F 29.96 in Calm     60 % 0.00 in 0.00 W/m2
02:41 61.5 °F 47.9 °F 29.96 in Calm   8.0 mph 61 % 0.00 in 0.00 W/m2
02:46 61.5 °F 47.9 °F 29.96 in East 7.0 mph 8.0 mph 61 % 0.00 in 0.00 W/m2
02:51 61.4 °F 47.8 °F 29.95 in East 4.0 mph 8.0 mph 61 % 0.00 in 0.00 W/m2
02:56 61.2 °F 47.7 °F 29.95 in Calm   11.0 mph 61 % 0.00 in 0.00 W/m2
03:01 61.1 °F 47.1 °F 29.95 in East 2.0 mph 11.0 mph 60 % 0.00 in 0.00 W/m2
03:06 61.1 °F 47.6 °F 29.95 in East 7.0 mph 9.0 mph 61 % 0.00 in 0.00 W/m2
03:11 61.0 °F 47.5 °F 29.95 in ESE 2.0 mph 7.0 mph 61 % 0.00 in 0.00 W/m2
03:16 61.0 °F 47.5 °F 29.95 in ESE 8.0 mph 11.0 mph 61 % 0.00 in 0.00 W/m2
03:21 60.9 °F 47.8 °F 29.95 in East 5.0 mph 11.0 mph 62 % 0.00 in 0.00 W/m2
03:26 60.9 °F 47.4 °F 29.96 in East 4.0 mph 11.0 mph 61 % 0.00 in 0.00 W/m2
03:31 60.9 °F 47.4 °F 29.96 in ESE 2.0 mph 8.0 mph 61 % 0.00 in 0.00 W/m2
03:36 60.8 °F 47.3 °F 29.96 in East 1.0 mph 11.0 mph 61 % 0.00 in 0.00 W/m2
03:41 60.8 °F 47.3 °F 29.96 in ESE 6.0 mph 9.0 mph 61 % 0.00 in 0.00 W/m2
03:46 60.8 °F 47.3 °F 29.96 in Calm   4.0 mph 61 % 0.00 in 0.00 W/m2
03:51 60.7 °F 47.2 °F 29.96 in ESE 5.0 mph 12.0 mph 61 % 0.00 in 0.00 W/m2
03:56 60.7 °F 47.6 °F 29.96 in ESE 2.0 mph 8.0 mph 62 % 0.00 in 0.00 W/m2
04:01 60.7 °F 47.2 °F 29.96 in East 7.0 mph 7.0 mph 61 % 0.00 in 0.00 W/m2
04:06 60.7 °F 47.2 °F 29.96 in East 8.0 mph 11.0 mph 61 % 0.00 in 0.00 W/m2
04:11 60.6 °F 47.1 °F 29.96 in East 7.0 mph 9.0 mph 61 % 0.00 in 0.00 W/m2
04:16 60.6 °F 47.1 °F 29.96 in East 7.0 mph 8.0 mph 61 % 0.00 in 0.00 W/m2
04:21 60.6 °F 47.1 °F 29.96 in East 6.0 mph 7.0 mph 61 % 0.00 in 0.00 W/m2
04:26 60.6 °F 47.1 °F 29.97 in ESE 8.0 mph 9.0 mph 61 % 0.00 in 0.00 W/m2
04:31 60.6 °F 47.1 °F 29.97 in East 5.0 mph 6.0 mph 61 % 0.00 in 0.00 W/m2
04:36 60.5 °F 47.0 °F 29.97 in East 2.0 mph 4.0 mph 61 % 0.00 in 0.00 W/m2
04:41 60.5 °F 47.4 °F 29.97 in ESE 6.0 mph 7.0 mph 62 % 0.00 in 0.00 W/m2
04:46 60.5 °F 47.4 °F 29.97 in Calm   6.0 mph 62 % 0.00 in 0.00 W/m2
04:51 60.4 °F 46.9 °F 29.97 in ESE 5.0 mph 8.0 mph 61 % 0.00 in 0.00 W/m2
04:56 60.4 °F 46.9 °F 29.97 in ESE 1.0 mph 7.0 mph 61 % 0.00 in 0.00 W/m2
05:01 60.3 °F 46.8 °F 29.97 in ESE 4.0 mph 6.0 mph 61 % 0.00 in 0.00 W/m2
05:06 60.2 °F 46.7 °F 29.97 in ESE 1.0 mph 5.0 mph 61 % 0.00 in 0.00 W/m2
05:12 60.2 °F 46.7 °F 29.98 in East 4.0 mph 6.0 mph 61 % 0.00 in 0.00 W/m2
05:16 60.1 °F 46.6 °F 29.98 in East 5.0 mph 5.0 mph 61 % 0.00 in 0.00 W/m2
05:22 60.0 °F 47.0 °F 29.98 in Calm   6.0 mph 62 % 0.00 in 0.00 W/m2
05:27 60.0 °F 47.0 °F 29.98 in East 2.0 mph 6.0 mph 62 % 0.00 in 0.00 W/m2
05:32 59.9 °F 46.9 °F 29.98 in East 2.0 mph 8.0 mph 62 % 0.00 in 0.00 W/m2
05:37 59.8 °F 47.2 °F 29.98 in East 5.0 mph 8.0 mph 63 % 0.00 in 0.00 W/m2
05:42 59.7 °F 46.7 °F 29.98 in ESE 2.0 mph 7.0 mph 62 % 0.00 in 7.00 W/m2
05:47 59.6 °F 46.6 °F 29.98 in East 6.0 mph 6.0 mph 62 % 0.00 in 9.00 W/m2
05:52 59.5 °F 46.5 °F 29.98 in Calm   7.0 mph 62 % 0.00 in 12.00 W/m2
05:57 59.5 °F 46.5 °F 29.99 in East 6.0 mph 8.0 mph 62 % 0.00 in 14.00 W/m2
06:02 59.4 °F 46.4 °F 29.99 in Calm   7.0 mph 62 % 0.00 in 16.00 W/m2
06:07 59.4 °F 46.4 °F 29.99 in East 6.0 mph 8.0 mph 62 % 0.00 in 18.00 W/m2
06:12 59.3 °F 46.3 °F 29.99 in East 2.0 mph 7.0 mph 62 % 0.00 in 23.00 W/m2
06:17 59.3 °F 46.3 °F 29.99 in ESE 4.0 mph 8.0 mph 62 % 0.00 in 37.00 W/m2
06:18 59.3 °F 46.3 °F 29.99 in Calm   8.0 mph 62 % 0.00 in 40.00 W/m2
06:23 59.3 °F 46.3 °F 29.99 in Calm   7.0 mph 62 % 0.00 in 51.00 W/m2
06:28 59.3 °F 46.3 °F 29.99 in East 7.0 mph 7.0 mph 62 % 0.00 in 63.00 W/m2
06:33 59.3 °F 46.7 °F 30.00 in East 2.0 mph 8.0 mph 63 % 0.00 in 74.00 W/m2
06:39 59.3 °F 46.7 °F 29.99 in ESE 1.0 mph 9.0 mph 63 % 0.00 in 95.00 W/m2
06:44 59.3 °F 47.1 °F 29.99 in ESE 1.0 mph 9.0 mph 64 % 0.00 in 111.00 W/m2
06:49 59.3 °F 46.7 °F 29.99 in Calm   8.0 mph 63 % 0.00 in 130.00 W/m2
06:54 59.3 °F 46.7 °F 30.00 in Calm   8.0 mph 63 % 0.00 in 149.00 W/m2
06:59 59.3 °F 47.1 °F 30.00 in ESE 4.0 mph 8.0 mph 64 % 0.00 in 169.00 W/m2
07:04 59.3 °F 47.5 °F 30.00 in Calm   9.0 mph 65 % 0.00 in 192.00 W/m2
07:09 59.4 °F 47.2 °F 30.00 in East 1.0 mph 8.0 mph 64 % 0.00 in 207.00 W/m2
07:14 59.4 °F 47.7 °F 30.00 in Calm   6.0 mph 65 % 0.00 in 232.00 W/m2
07:19 59.5 °F 47.7 °F 30.00 in Calm   8.0 mph 65 % 0.00 in 250.00 W/m2
07:24 59.5 °F 48.2 °F 30.00 in ESE 1.0 mph 9.0 mph 66 % 0.00 in 213.00 W/m2
07:29 59.6 °F 48.2 °F 30.00 in ESE 2.0 mph 8.0 mph 66 % 0.00 in 283.00 W/m2
07:34 59.7 °F 48.3 °F 30.00 in Calm   9.0 mph 66 % 0.00 in 299.00 W/m2
07:39 59.8 °F 48.8 °F 30.00 in East 2.0 mph 8.0 mph 67 % 0.00 in 315.00 W/m2
07:44 59.9 °F 48.9 °F 30.00 in Calm     67 % 0.00 in 332.00 W/m2
07:49 60.0 °F 49.0 °F 30.00 in Calm   6.0 mph 67 % 0.00 in 348.00 W/m2
07:54 60.2 °F 49.2 °F 30.00 in Calm   6.0 mph 67 % 0.00 in 364.00 W/m2
07:59 60.2 °F 49.6 °F 30.00 in Calm   7.0 mph 68 % 0.00 in 378.00 W/m2
08:04 60.4 °F 50.2 °F 30.00 in Calm   5.0 mph 69 % 0.00 in 394.00 W/m2
08:09 60.5 °F 50.3 °F 30.00 in Calm   7.0 mph 69 % 0.00 in 410.00 W/m2
08:14 60.7 °F 50.5 °F 30.00 in Calm   4.0 mph 69 % 0.00 in 425.00 W/m2
08:19 60.9 °F 51.1 °F 30.00 in Calm   1.0 mph 70 % 0.00 in 439.00 W/m2
08:24 61.1 °F 51.2 °F 30.00 in Calm     70 % 0.00 in 455.00 W/m2
08:29 61.3 °F 51.5 °F 30.00 in Calm   5.0 mph 70 % 0.00 in 471.00 W/m2
08:34 61.6 °F 52.1 °F 30.00 in Calm     71 % 0.00 in 485.00 W/m2
08:39 61.9 °F 52.4 °F 30.01 in Calm   5.0 mph 71 % 0.00 in 501.00 W/m2
08:44 62.2 °F 52.7 °F 30.01 in Calm   5.0 mph 71 % 0.00 in 515.00 W/m2
08:49 62.6 °F 53.1 °F 30.01 in Calm     71 % 0.00 in 533.00 W/m2
08:54 63.0 °F 53.1 °F 30.01 in Calm     70 % 0.00 in 547.00 W/m2
08:59 63.5 °F 53.2 °F 30.01 in Calm     69 % 0.00 in 564.00 W/m2
09:04 63.9 °F 53.1 °F 30.01 in Calm     68 % 0.00 in 578.00 W/m2
09:09 64.3 °F 53.5 °F 30.01 in Calm     68 % 0.00 in 592.00 W/m2
09:14 64.6 °F 53.0 °F 30.01 in Calm     66 % 0.00 in 603.00 W/m2
09:19 65.0 °F 53.0 °F 30.02 in Calm     65 % 0.00 in 619.00 W/m2
09:24 65.3 °F 51.5 °F 30.01 in Calm     61 % 0.00 in 633.00 W/m2
09:29 65.8 °F 50.2 °F 30.01 in Calm     57 % 0.00 in 649.00 W/m2
09:34 66.4 °F 50.7 °F 30.01 in Calm     57 % 0.00 in 668.00 W/m2
09:39 67.1 °F 49.9 °F 30.01 in Calm   1.0 mph 54 % 0.00 in 686.00 W/m2
09:44 67.7 °F 51.9 °F 30.01 in Calm   4.0 mph 57 % 0.00 in 700.00 W/m2
09:49 68.1 °F 50.8 °F 30.01 in Calm   4.0 mph 54 % 0.00 in 735.00 W/m2
09:54 68.8 °F 52.5 °F 30.02 in Calm   6.0 mph 56 % 0.00 in 715.00 W/m2
09:59 69.6 °F 53.7 °F 30.02 in NW 1.0 mph 6.0 mph 57 % 0.00 in 650.00 W/m2
10:04 70.1 °F 53.2 °F 30.02 in Calm   8.0 mph 55 % 0.00 in 722.00 W/m2
10:09 70.3 °F 50.8 °F 30.02 in Calm   2.0 mph 50 % 0.00 in 684.00 W/m2
10:14 70.4 °F 52.0 °F 30.02 in NW 3.0 mph 4.0 mph 52 % 0.00 in 694.00 W/m2
10:15 70.4 °F 52.0 °F 30.02 in Calm   4.0 mph 52 % 0.00 in 701.00 W/m2
10:20 70.6 °F 52.7 °F 30.02 in Calm   3.0 mph 53 % 0.00 in 807.00 W/m2
10:25 70.7 °F 52.8 °F 30.02 in Calm   3.0 mph 53 % 0.00 in 791.00 W/m2
10:30 71.0 °F 52.0 °F 30.02 in Calm   2.0 mph 51 % 0.00 in 759.00 W/m2
10:31 71.0 °F 52.0 °F 30.02 in WNW 7.0 mph 7.0 mph 51 % 0.00 in 737.00 W/m2
10:36 71.3 °F 50.6 °F 30.02 in Calm     48 % 0.00 in 766.00 W/m2
10:41 71.6 °F 51.5 °F 30.02 in Calm     49 % 0.00 in 729.00 W/m2
10:46 71.9 °F 52.3 °F 30.02 in Calm     50 % 0.00 in 696.00 W/m2
10:51 72.2 °F 51.4 °F 30.02 in Calm     48 % 0.00 in 775.00 W/m2
10:56 72.3 °F 52.1 °F 30.03 in Calm     49 % 0.00 in 740.00 W/m2
11:01 72.5 °F 52.3 °F 30.03 in NW 2.0 mph 2.0 mph 49 % 0.00 in 823.00 W/m2
11:06 72.7 °F 52.5 °F 30.03 in Calm     49 % 0.00 in 854.00 W/m2
11:11 72.9 °F 52.1 °F 30.03 in Calm     48 % 0.00 in 884.00 W/m2
11:16 73.1 °F 51.7 °F 30.03 in WNW 3.0 mph 3.0 mph 47 % 0.00 in 884.00 W/m2
11:21 73.4 °F 52.0 °F 30.03 in WNW 1.0 mph 1.0 mph 47 % 0.00 in 893.00 W/m2
11:26 73.7 °F 52.2 °F 30.03 in Calm   3.0 mph 47 % 0.00 in 904.00 W/m2
11:31 73.9 °F 51.8 °F 30.03 in WNW 4.0 mph 4.0 mph 46 % 0.00 in 891.00 W/m2
11:36 74.1 °F 52.0 °F 30.03 in Calm     46 % 0.00 in 905.00 W/m2
11:41 74.4 °F 52.9 °F 30.03 in Calm     47 % 0.00 in 902.00 W/m2
11:46 74.6 °F 49.4 °F 30.03 in Calm     41 % 0.00 in 900.00 W/m2
11:51 74.8 °F 52.7 °F 30.03 in WNW 3.0 mph 5.0 mph 46 % 0.00 in 912.00 W/m2
11:56 75.0 °F 53.4 °F 30.03 in WNW 3.0 mph 7.0 mph 47 % 0.00 in 918.00 W/m2
12:01 75.3 °F 51.3 °F 30.03 in Calm     43 % 0.00 in 928.00 W/m2
12:06 75.6 °F 52.8 °F 30.03 in WNW 1.0 mph 1.0 mph 45 % 0.00 in 939.00 W/m2
12:11 75.9 °F 54.2 °F 30.03 in Calm     47 % 0.00 in 937.00 W/m2
12:16 76.2 °F 53.9 °F 30.03 in West 3.0 mph 6.0 mph 46 % 0.00 in 940.00 W/m2
12:21 76.5 °F 53.0 °F 30.03 in Calm     44 % 0.00 in 930.00 W/m2
12:26 76.7 °F 53.2 °F 30.03 in Calm   1.0 mph 44 % 0.00 in 940.00 W/m2
12:31 76.9 °F 53.3 °F 30.03 in Calm     44 % 0.00 in 942.00 W/m2
12:36 77.1 °F 52.3 °F 30.03 in Calm     42 % 0.00 in 951.00 W/m2
12:41 77.3 °F 52.5 °F 30.03 in Calm     42 % 0.00 in 951.00 W/m2
12:46 77.7 °F 52.8 °F 30.03 in Calm     42 % 0.00 in 953.00 W/m2
12:51 77.9 °F 51.7 °F 30.03 in Calm   3.0 mph 40 % 0.00 in 954.00 W/m2
12:56 78.2 °F 51.9 °F 30.03 in Calm   5.0 mph 40 % 0.00 in 958.00 W/m2
13:01 78.3 °F 52.0 °F 30.03 in NNW 1.0 mph 1.0 mph 40 % 0.00 in 954.00 W/m2
13:06 78.3 °F 47.7 °F 30.03 in NNE 1.0 mph 5.0 mph 34 % 0.00 in 954.00 W/m2
13:11 78.3 °F 50.6 °F 30.02 in NW 2.0 mph 4.0 mph 38 % 0.00 in 951.00 W/m2
13:16 78.5 °F 50.8 °F 30.03 in WNW 1.0 mph 5.0 mph 38 % 0.00 in 949.00 W/m2
13:21 78.7 °F 49.5 °F 30.03 in Calm   1.0 mph 36 % 0.00 in 944.00 W/m2
13:26 78.8 °F 49.6 °F 30.02 in Calm     36 % 0.00 in 946.00 W/m2
13:31 78.9 °F 50.4 °F 30.02 in Calm     37 % 0.00 in 947.00 W/m2
13:36 79.2 °F 50.7 °F 30.02 in Calm     37 % 0.00 in 944.00 W/m2
13:41 79.8 °F 50.5 °F 30.02 in Calm     36 % 0.00 in 940.00 W/m2
13:46 79.8 °F 49.0 °F 30.02 in Calm   2.0 mph 34 % 0.00 in 937.00 W/m2
13:51 79.7 °F 48.1 °F 30.02 in Calm   1.0 mph 33 % 0.00 in 933.00 W/m2
13:56 79.6 °F 48.8 °F 30.02 in Calm     34 % 0.00 in 925.00 W/m2
14:01 79.4 °F 49.4 °F 30.02 in Calm     35 % 0.00 in 921.00 W/m2
14:06 79.5 °F 49.5 °F 30.02 in NW 1.0 mph 4.0 mph 35 % 0.00 in 916.00 W/m2
14:11 79.6 °F 51.1 °F 30.02 in Calm   4.0 mph 37 % 0.00 in 907.00 W/m2
14:17 79.8 °F 51.2 °F 30.02 in West 4.0 mph 10.0 mph 37 % 0.00 in 905.00 W/m2
14:22 80.2 °F 51.6 °F 30.02 in West 3.0 mph 6.0 mph 37 % 0.00 in 898.00 W/m2
14:27 80.6 °F 49.7 °F 30.01 in WNW 5.0 mph 7.0 mph 34 % 0.00 in 893.00 W/m2
14:32 80.8 °F 51.4 °F 30.01 in West 1.0 mph 6.0 mph 36 % 0.00 in 886.00 W/m2
14:37 80.7 °F 52.0 °F 30.01 in WNW 4.0 mph 7.0 mph 37 % 0.00 in 879.00 W/m2
14:42 80.9 °F 51.5 °F 30.01 in SW 7.0 mph 12.0 mph 36 % 0.00 in 870.00 W/m2
14:47 81.1 °F 52.4 °F 30.01 in Calm   6.0 mph 37 % 0.00 in 865.00 W/m2
14:52 81.0 °F 50.8 °F 30.01 in Calm   10.0 mph 35 % 0.00 in 854.00 W/m2
14:57 81.0 °F 52.3 °F 30.01 in WSW 7.0 mph 7.0 mph 37 % 0.00 in 849.00 W/m2
15:02 80.8 °F 51.4 °F 30.01 in Calm   3.0 mph 36 % 0.00 in 844.00 W/m2
15:07 80.6 °F 52.7 °F 30.01 in Calm   4.0 mph 38 % 0.00 in 831.00 W/m2
15:12 80.5 °F 50.4 °F 30.01 in West 3.0 mph 6.0 mph 35 % 0.00 in 821.00 W/m2
15:17 80.4 °F 51.8 °F 30.01 in WSW 5.0 mph 10.0 mph 37 % 0.00 in 810.00 W/m2
15:22 80.4 °F 52.5 °F 30.01 in Calm   1.0 mph 38 % 0.00 in 802.00 W/m2
15:27 80.3 °F 51.7 °F 30.01 in NNW 2.0 mph 9.0 mph 37 % 0.00 in 789.00 W/m2
15:32 80.2 °F 52.3 °F 30.01 in West 1.0 mph 6.0 mph 38 % 0.00 in 779.00 W/m2
15:37 80.0 °F 52.1 °F 30.01 in WSW 2.0 mph 9.0 mph 38 % 0.00 in 763.00 W/m2
15:42 79.8 °F 52.7 °F 30.01 in WNW 9.0 mph 11.0 mph 39 % 0.00 in 758.00 W/m2
15:47 79.8 °F 52.0 °F 30.01 in Calm   4.0 mph 38 % 0.00 in 749.00 W/m2
15:52 79.7 °F 51.9 °F 30.01 in West 1.0 mph 6.0 mph 38 % 0.00 in 737.00 W/m2
15:57 79.7 °F 51.9 °F 30.01 in Calm   7.0 mph 38 % 0.00 in 724.00 W/m2
16:02 79.7 °F 51.2 °F 30.01 in Calm   4.0 mph 37 % 0.00 in 715.00 W/m2
16:07 79.7 °F 51.9 °F 30.01 in Calm   5.0 mph 38 % 0.00 in 700.00 W/m2
16:12 79.9 °F 50.6 °F 30.01 in West 2.0 mph 12.0 mph 36 % 0.00 in 684.00 W/m2
16:17 80.0 °F 49.9 °F 30.00 in Calm   1.0 mph 35 % 0.00 in 668.00 W/m2
16:20 79.9 °F 49.8 °F 30.00 in West 4.0 mph 7.0 mph 35 % 0.00 in 661.00 W/m2
16:25 79.9 °F 50.6 °F 30.00 in WNW 3.0 mph 8.0 mph 36 % 0.00 in 650.00 W/m2
16:30 80.0 °F 49.9 °F 30.00 in WSW 1.0 mph 9.0 mph 35 % 0.00 in 638.00 W/m2
16:35 80.1 °F 49.2 °F 30.00 in Calm   10.0 mph 34 % 0.00 in 628.00 W/m2
16:40 80.1 °F 50.0 °F 30.00 in Calm   3.0 mph 35 % 0.00 in 615.00 W/m2
16:45 79.9 °F 49.8 °F 30.00 in Calm   5.0 mph 35 % 0.00 in 605.00 W/m2
16:50 79.8 °F 49.7 °F 30.00 in WSW 2.0 mph 5.0 mph 35 % 0.00 in 591.00 W/m2
16:55 79.8 °F 49.7 °F 30.00 in Calm   3.0 mph 35 % 0.00 in 577.00 W/m2
17:00 79.7 °F 50.4 °F 30.00 in Calm   4.0 mph 36 % 0.00 in 563.00 W/m2
17:05 79.7 °F 49.7 °F 30.00 in Calm   6.0 mph 35 % 0.00 in 541.00 W/m2
17:10 79.7 °F 49.7 °F 30.00 in WSW 5.0 mph 5.0 mph 35 % 0.00 in 519.00 W/m2
17:15 79.5 °F 50.2 °F 30.00 in Calm   5.0 mph 36 % 0.00 in 492.00 W/m2
17:20 79.4 °F 49.4 °F 30.00 in NNW 6.0 mph 11.0 mph 35 % 0.00 in 482.00 W/m2
17:25 79.2 °F 50.0 °F 30.00 in NNW 6.0 mph 9.0 mph 36 % 0.00 in 492.00 W/m2
17:30 79.1 °F 49.9 °F 30.00 in NNW 1.0 mph 9.0 mph 36 % 0.00 in 476.00 W/m2
17:35 79.1 °F 49.9 °F 29.99 in NNW 6.0 mph 11.0 mph 36 % 0.00 in 459.00 W/m2
17:40 79.1 °F 50.6 °F 30.00 in NW 2.0 mph 7.0 mph 37 % 0.00 in 445.00 W/m2
17:45 79.1 °F 49.9 °F 29.99 in NW 1.0 mph 14.0 mph 36 % 0.00 in 431.00 W/m2
17:50 79.0 °F 49.8 °F 30.00 in NW 2.0 mph 12.0 mph 36 % 0.00 in 413.00 W/m2
17:55 78.9 °F 50.4 °F 30.00 in NNW 4.0 mph 7.0 mph 37 % 0.00 in 396.00 W/m2
18:00 78.9 °F 49.7 °F 30.00 in Calm   9.0 mph 36 % 0.00 in 383.00 W/m2
18:05 78.9 °F 49.7 °F 29.99 in NNW 1.0 mph 9.0 mph 36 % 0.00 in 367.00 W/m2
18:10 78.8 °F 50.4 °F 29.99 in NW 5.0 mph 9.0 mph 37 % 0.00 in 350.00 W/m2
18:15 78.7 °F 48.8 °F 29.99 in WNW 1.0 mph 9.0 mph 35 % 0.00 in 334.00 W/m2
18:20 78.7 °F 49.5 °F 29.99 in Calm   8.0 mph 36 % 0.00 in 316.00 W/m2
18:25 78.6 °F 48.7 °F 29.99 in NW 5.0 mph 7.0 mph 35 % 0.00 in 304.00 W/m2
18:30 78.5 °F 50.1 °F 29.99 in Calm   6.0 mph 37 % 0.00 in 279.00 W/m2
18:35 78.3 °F 50.6 °F 29.99 in Calm   8.0 mph 38 % 0.00 in 271.00 W/m2
18:40 78.1 °F 49.0 °F 29.99 in Calm   9.0 mph 36 % 0.00 in 257.00 W/m2
18:45 77.9 °F 50.3 °F 29.99 in NW 4.0 mph 7.0 mph 38 % 0.00 in 241.00 W/m2
18:51 77.8 °F 50.9 °F 29.99 in WNW 1.0 mph 5.0 mph 39 % 0.00 in 227.00 W/m2
18:56 77.7 °F 51.5 °F 29.99 in Calm   6.0 mph 40 % 0.00 in 209.00 W/m2
19:01 77.4 °F 50.5 °F 29.99 in Calm     39 % 0.00 in 195.00 W/m2
19:06 77.0 °F 50.9 °F 29.99 in Calm   1.0 mph 40 % 0.00 in 178.00 W/m2
19:11 76.8 °F 51.3 °F 29.99 in NW 3.0 mph 8.0 mph 41 % 0.00 in 160.00 W/m2
19:16 76.5 °F 51.1 °F 29.99 in NW 4.0 mph 8.0 mph 41 % 0.00 in 137.00 W/m2
19:21 76.1 °F 51.4 °F 29.99 in Calm   7.0 mph 42 % 0.00 in 125.00 W/m2
19:26 75.7 °F 51.0 °F 29.99 in NNW 3.0 mph 7.0 mph 42 % 0.00 in 70.00 W/m2
19:41 74.6 °F 52.5 °F 29.99 in NNW 1.0 mph 3.0 mph 46 % 0.00 in 60.00 W/m2
19:46 74.2 °F 52.1 °F 29.99 in Calm   3.0 mph 46 % 0.00 in 47.00 W/m2
19:51 73.8 °F 51.8 °F 30.00 in Calm     46 % 0.00 in 37.00 W/m2
19:53 73.6 °F 52.2 °F 29.99 in Calm     47 % 0.00 in 33.00 W/m2
19:58 73.3 °F 51.9 °F 30.00 in Calm   1.0 mph 47 % 0.00 in 26.00 W/m2
20:03 73.1 °F 52.3 °F 30.00 in Calm   2.0 mph 48 % 0.00 in 19.00 W/m2
20:08 72.7 °F 52.5 °F 30.00 in Calm   2.0 mph 49 % 0.00 in 14.00 W/m2
20:13 72.4 °F 52.2 °F 30.00 in Calm   3.0 mph 49 % 0.00 in 12.00 W/m2
20:18 72.1 °F 51.9 °F 29.99 in Calm   3.0 mph 49 % 0.00 in 9.00 W/m2
20:23 71.9 °F 51.7 °F 29.99 in Calm   1.0 mph 49 % 0.00 in 7.00 W/m2
20:28 71.5 °F 51.9 °F 29.99 in Calm   5.0 mph 50 % 0.00 in 5.00 W/m2
20:33 71.2 °F 52.2 °F 30.00 in NNW 3.0 mph 6.0 mph 51 % 0.00 in 0.00 W/m2
20:38 70.9 °F 51.9 °F 29.99 in Calm   6.0 mph 51 % 0.00 in 0.00 W/m2
20:43 70.6 °F 51.6 °F 30.00 in NNW 3.0 mph 6.0 mph 51 % 0.00 in 0.00 W/m2
20:48 70.4 °F 51.4 °F 30.00 in Calm   5.0 mph 51 % 0.00 in 0.00 W/m2
20:53 70.2 °F 50.7 °F 30.00 in Calm   5.0 mph 50 % 0.00 in 0.00 W/m2
20:58 70.0 °F 50.5 °F 30.00 in Calm   4.0 mph 50 % 0.00 in 0.00 W/m2
21:03 69.9 °F 50.4 °F 30.00 in Calm     50 % 0.00 in 0.00 W/m2
21:08 69.7 °F 50.2 °F 30.00 in Calm   1.0 mph 50 % 0.00 in 0.00 W/m2
21:13 69.5 °F 50.1 °F 30.00 in Calm   2.0 mph 50 % 0.00 in 0.00 W/m2
21:18 69.3 °F 49.9 °F 30.00 in Calm   6.0 mph 50 % 0.00 in 0.00 W/m2
21:23 69.1 °F 49.7 °F 30.01 in Calm     50 % 0.00 in 0.00 W/m2
21:28 69.0 °F 50.1 °F 30.01 in Calm   3.0 mph 51 % 0.00 in 0.00 W/m2
21:33 68.8 °F 50.0 °F 30.01 in Calm   5.0 mph 51 % 0.00 in 0.00 W/m2
21:38 68.8 °F 50.5 °F 30.01 in NNW 3.0 mph 5.0 mph 52 % 0.00 in 0.00 W/m2
21:43 68.7 °F 50.4 °F 30.01 in Calm   5.0 mph 52 % 0.00 in 0.00 W/m2
21:49 68.7 °F 49.9 °F 30.01 in NNW 3.0 mph 5.0 mph 51 % 0.00 in 0.00 W/m2
21:54 68.6 °F 49.8 °F 30.01 in NNW 1.0 mph 2.0 mph 51 % 0.00 in 0.00 W/m2
21:59 68.6 °F 49.8 °F 30.01 in NNW 3.0 mph 3.0 mph 51 % 0.00 in 0.00 W/m2
22:04 68.6 °F 50.3 °F 30.01 in Calm   2.0 mph 52 % 0.00 in 0.00 W/m2
22:09 68.5 °F 49.7 °F 30.01 in Calm   4.0 mph 51 % 0.00 in 0.00 W/m2
22:14 68.5 °F 50.2 °F 30.01 in Calm     52 % 0.00 in 0.00 W/m2
22:19 68.4 °F 50.1 °F 30.01 in Calm     52 % 0.00 in 0.00 W/m2
22:24 68.2 °F 49.9 °F 30.02 in Calm   1.0 mph 52 % 0.00 in 0.00 W/m2
22:30 68.1 °F 49.8 °F 30.01 in Calm   1.0 mph 52 % 0.00 in 0.00 W/m2
22:35 68.0 °F 49.7 °F 30.02 in Calm     52 % 0.00 in 0.00 W/m2
22:40 67.9 °F 49.7 °F 30.02 in Calm     52 % 0.00 in 0.00 W/m2
22:45 67.9 °F 49.7 °F 30.02 in Calm     52 % 0.00 in 0.00 W/m2
22:46 67.9 °F 50.2 °F 30.01 in Calm   1.0 mph 53 % 0.00 in 0.00 W/m2
22:51 67.8 °F 49.5 °F 30.01 in Calm     52 % 0.00 in 0.00 W/m2
22:56 67.7 °F 49.5 °F 30.01 in Calm     52 % 0.00 in 0.00 W/m2
23:01 67.6 °F 49.4 °F 30.01 in Calm     52 % 0.00 in 0.00 W/m2
23:06 67.6 °F 49.4 °F 30.01 in Calm     52 % 0.00 in 0.00 W/m2
23:11 67.5 °F 49.3 °F 30.01 in Calm     52 % 0.00 in 0.00 W/m2
23:16 67.5 °F 49.8 °F 30.01 in Calm     53 % 0.00 in 0.00 W/m2
23:21 67.5 °F 49.8 °F 30.01 in Calm     53 % 0.00 in 0.00 W/m2
23:26 67.4 °F 49.7 °F 30.01 in Calm     53 % 0.00 in 0.00 W/m2
23:31 67.4 °F 49.7 °F 30.01 in Calm     53 % 0.00 in 0.00 W/m2
23:36 67.3 °F 50.1 °F 30.01 in Calm     54 % 0.00 in 0.00 W/m2
23:41 67.2 °F 50.0 °F 30.00 in NNE 4.0 mph 4.0 mph 54 % 0.00 in 0.00 W/m2
23:46 67.1 °F 50.4 °F 30.01 in Calm     55 % 0.00 in 0.00 W/m2
23:51 67.0 °F 50.3 °F 30.01 in Calm     55 % 0.00 in 0.00 W/m2
23:56 66.9 °F 50.2 °F 30.01 in Calm     55 % 0.00 in 0.00 W/m2
Juneau County Weather
Compliments of Weather Underground - 4.5 mb
 WU-history PHP script courtesy of   Juneau County Weather.
powered by Cumulus v1.9.3 (1059)
Ambient Weather VWS v14.00
Top Contact Website Map Copyright © 2007 - 2018 Foresthillweather.com Never base important decisions on this or any weather information obtained from the Internet